Bitte eine E-Mail-Adresse für das Benutzerkonto eingeben. Ein Bestätigungscode wird dann an diese verschickt. Sobald der Code vorliegt, kann ein neues Passwort für das Benutzerkonto festgelegt werden.

WebCam

  
Kamera Halle
Kamera Vorfeld

GPS Triangle WM Sports Class

AeroClub Göppingen-Salach e.V.
Ausrichter der Modellflug
GPS Triangle-WM 2020

Wetter EDDS

METAR

EDDS 280750Z 21009KT 170V240 9999 SCT022 BKN025 06/03 Q0998 NOSIG =
EDDS 280500Z 2806/2906 20010KT 9999 BKN030 BECMG 2806/2809 22015G30KT TEMPO 2806/2816 3000 SHRA BKN012CB PROB30 TEMPO 2806/2816 24025G45KT 2000 TSGSRA BKN008CB PROB30 TEMPO 2816/2823 3000 SHRASN BKN012CB BECMG 2819/2822 22010KT TEMPO 2823/2906 2000 SHSNRA BKN008CB


TAF

EDDS 280500Z 2806/2906 20010KT 9999 BKN030 BECMG 2806/2809 22015G30KT TEMPO 2806/2816 3000 SHRA BKN012CB PROB30 TEMPO 2806/2816 24025G45KT 2000 TSGSRA BKN008CB PROB30 TEMPO 2816/2823 3000 SHRASN BKN012CB BECMG 2819/2822 22010KT TEMPO 2823/2906 2000 SHSNRA BKN008CB =


SR/SS

06:56 / 16:12 UTC
(EDSO 28-01-2020)